Home > Weather > Plano > Past weeks

Flag for USA Past Weather in Plano, Texas, USA — Yesterday and Last 2 Weeks

Now
78 °F

Clear.


Feels Like: 81 °F
Forecast: 82 / 100 °F
Wind: 5 mph from Southeast

Location: McKinney Municipal Airport

Current Time: Jul 24, 2016 at 5:57:13 AM

Latest Report: Jul 24, 2016 at 4:53 AM


Visibility: 10 mi

Pressure: 29.90 "Hg

Humidity: 84%

Dew Point: 73 °F

Location of PlanoLocation

Past Weather in Plano — Graph

°F

Plano Temperature Yesterday

Maximum temperature yesterday: 98 °F (at 3:53 PM)
Minimum temperature yesterday: 78 °F (at 1:53 AM)
Average temperature yesterday: 88 °F

High & Low Weather Summary for the Past Weeks

 TemperatureHumidityPressure
High98 °F (Jul 22, 4:53 PM)97% (Jul 9, 5:53 PM)30.20 "Hg (Jul 9, 5:53 PM)
Low68 °F (Jul 15, 9:55 AM)36% (Jul 22, 2:53 PM)29.78 "Hg (Jul 11, 6:53 PM)
Average85 °F66%29.98 "Hg
* Reported Jul 9 4:53 AM — Jul 24 4:53 AM, Plano, Weather by CustomWeather, © 2016

Note: Actual official high and low records may vary slightly from our data, if they occured in-between our weather recording intervals... More about our weather records

Advertising

Plano Weather History for the Previous 24 Hours

Scroll right to see more
 ConditionsComfort  
Time TempWeatherWind HumidityBarometerVisibility
4:53 AM
Sun, Jul 24
78 °FClear.5 mph84%29.90 "Hg10 mi
3:53 AM78 °FClear.3 mph84%29.89 "Hg10 mi
2:53 AM79 °FClear.3 mph84%29.89 "Hg10 mi
1:53 AM80 °FClear.5 mph81%29.90 "Hg10 mi
12:53 AM82 °FClear.5 mph77%29.90 "Hg10 mi
11:53 PM
Sat, Jul 23
83 °FClear.6 mph72%29.90 "Hg10 mi
10:53 PM86 °FClear.9 mph63%29.90 "Hg10 mi
9:53 PM89 °FClear.8 mph57%29.89 "Hg10 mi
8:53 PM90 °FSunny.7 mph56%29.88 "Hg10 mi
7:53 PM93 °FSunny.9 mph49%29.85 "Hg10 mi
6:53 PM96 °FSunny.10 mph44%29.84 "Hg10 mi
5:53 PM98 °FSunny.15 mph40%29.84 "Hg10 mi
4:53 PM98 °FSunny.10 mph42%29.86 "Hg10 mi
3:53 PM98 °FSunny.14 mph40%29.88 "Hg10 mi
2:53 PM97 °FScattered clouds.7 mph43%29.91 "Hg10 mi
1:53 PM96 °FPartly sunny.12 mph43%29.93 "Hg10 mi
12:53 PM97 °FSunny.8 mph43%29.95 "Hg10 mi
11:53 AM93 °FSunny.6 mph49%29.96 "Hg10 mi
10:53 AM92 °FSunny.13 mph49%29.97 "Hg10 mi
9:53 AM89 °FSunny.9 mph57%29.97 "Hg10 mi
8:53 AM85 °FSunny.3 mph68%29.98 "Hg10 mi
7:53 AM82 °FSunny.No wind74%29.97 "Hg10 mi
6:53 AM78 °FClear.5 mph82%29.95 "Hg10 mi
5:53 AM82 °FClear.3 mph70%29.93 "Hg10 mi
Weather by CustomWeather, © 2016

See weather overviewHow to use our weather pages